FW7308 Weather Reports


time (UTC)temp
C
wind
direction
speed
KPH
gust
KPH
rain 1hr
cm
rain 24hr
cm
rain mn
cm
humidity
%
barometer
mb
20260831044727 16 331 1.6 3.2 0.00 0.00 0.00 98 1021.4
20260831044226 16 331 0.0 1.6 0.00 0.00 0.00 98 1021.4
20260831043725 16 330 1.6 1.6 0.00 0.00 0.00 97 1021.4
20260831043226 16 331 1.6 3.2 0.00 0.00 0.00 97 1021.4
20260831042726 16 326 1.6 1.6 0.00 0.00 0.00 96 1021.4
20260831042225 16 328 1.6 1.6 0.00 0.00 0.00 96 1021.0
20260831041726 16 0.0 0.0 0.00 0.00 0.00 95 1021.0
20260831040724 16 332 1.6 1.6 0.00 0.00 0.00 95 1021.0
20260831040324 16 329 1.6 1.6 0.00 0.00 0.00 95 1021.0
20260831035725 17 326 1.6 1.6 0.00 0.00 0.00 94 1021.0
20260831034728 17 328 1.6 1.6 0.00 0.00 0.00 93 1021.0
20260831034222 17 341 4.8 8.0 0.00 0.00 0.00 92 1021.2
20260831033826 17 331 1.6 1.6 0.00 0.00 0.00 92 1021.4
20260831033223 17 329 1.6 3.2 0.00 0.00 0.00 92 1021.0
20260831032722 17 331 1.6 1.6 0.00 0.00 0.00 92 1021.0
20260831032221 17 329 0.0 1.6 0.00 0.00 0.00 92 1021.0
20260831031723 17 322 1.6 3.2 0.00 0.00 0.00 91 1021.0
20260831031221 17 330 1.6 3.2 0.00 0.00 0.00 91 1021.0
20260831030721 18 335 1.6 1.6 0.00 0.00 0.00 89 1021.0
20260831030220 18 341 1.6 1.6 0.00 0.00 0.00 90 1021.0
20260831025821 18 335 3.2 3.2 0.00 0.00 0.00 89 1021.2
20260831025220 18 348 3.2 8.0 0.00 0.00 0.00 89 1021.0
20260831024719 18 336 1.6 1.6 0.00 0.00 0.00 88 1021.0
20260831024218 18 332 1.6 3.2 0.00 0.00 0.00 90 1021.0
20260831023718 18 330 0.0 1.6 0.00 0.00 0.00 89 1021.2
20260831023219 18 328 0.0 1.6 0.00 0.00 0.00 90 1021.0
20260831022718 18 316 3.2 3.2 0.00 0.00 0.00 89 1021.0
20260831022217 18 341 1.6 3.2 0.00 0.00 0.00 89 1021.2
20260831021718 18 336 0.0 1.6 0.00 0.00 0.00 89 1021.0
20260831021218 18 331 3.2 4.8 0.00 0.00 0.00 89 1020.7
20260831020717 18 327 4.8 8.0 0.00 0.00 0.00 88 1020.7
20260831020216 18 338 3.2 8.0 0.00 0.00 0.00 87 1021.0
20260831015745 18 333 6.4 8.0 0.00 0.00 0.00 88 1021.0
20260831015246 18 336 4.8 8.0 0.00 0.00 0.00 88 1020.7
20260831014747 18 328 4.8 8.0 0.00 0.00 0.00 88 1020.7
20260831013744 18 334 3.2 4.8 0.00 0.00 0.00 88 1020.7
20260831013245 18 331 4.8 8.0 0.00 0.00 0.00 88 1020.7
20260831012744 18 328 3.2 8.0 0.00 0.00 0.00 88 1020.7
20260831012244 18 333 3.2 3.2 0.00 0.00 0.00 88 1020.7
20260831011744 19 347 0.0 1.6 0.00 0.00 0.00 88 1020.7
20260831011244 19 346 3.2 4.8 0.00 0.00 0.00 88 1020.3
20260831010843 19 325 3.2 8.0 0.00 0.00 0.00 88 1020.3
20260831010242 19 308 4.8 8.0 0.00 0.00 0.00 88 1020.3
20260831005242 19 343 4.8 8.0 0.00 0.00 0.00 87 1020.7
20260831004742 19 327 1.6 3.2 0.00 0.00 0.00 88 1020.3
20260831003742 19 325 4.8 4.8 0.00 0.00 0.00 88 1020.0
20260831003241 19 305 6.4 9.7 0.00 0.00 0.00 89 1020.0
20260831002740 19 340 3.2 4.8 0.00 0.00 0.00 89 1020.0
20260831002240 19 332 6.4 11.3 0.00 0.00 0.00 90 1020.0
20260831001839 19 324 1.6 3.2 0.00 0.00 0.00 90 1020.0
20260831001239 19 312 1.6 3.2 0.00 0.00 0.00 90 1020.0
20260831000739 19 320 1.6 3.2 0.00 0.00 0.00 89 1019.6
20260831000238 20 344 3.2 4.8 0.00 0.00 0.00 88 1019.6
20260830235737 20 313 4.8 11.3 0.00 0.00 0.00 86 1019.6
20260830235238 20 296 6.4 11.3 0.00 0.00 0.00 86 1019.6
20260830234737 20 326 1.6 1.6 0.00 0.00 0.00 85 1019.6
20260830234236 20 0.0 0.0 0.00 0.00 0.00 84 1019.6
20260830233735 20 325 1.6 3.2 0.00 0.00 0.00 83 1019.6
20260830233237 21 331 4.8 4.8 0.00 0.00 0.00 82 1019.3
20260830232736 21 331 4.8 9.7 0.00 0.00 0.00 81 1019.3
20260830232235 21 330 4.8 8.0 0.00 0.00 0.00 80 1019.4
20260830231734 21 332 1.6 4.8 0.00 0.00 0.00 80 1019.3
20260830231236 21 334 1.6 3.2 0.00 0.00 0.00 80 1019.3
20260830230736 21 0.0 0.0 0.00 0.00 0.00 80 1019.3
20260830230335 21 335 0.0 1.6 0.00 0.00 0.00 79 1019.3
20260830225234 21 322 1.6 3.2 0.00 0.00 0.00 80 1019.3
20260830224733 21 333 1.6 1.6 0.00 0.00 0.00 78 1019.3
20260830224233 21 329 3.2 4.8 0.00 0.00 0.00 78 1019.3
20260830223734 21 344 1.6 3.2 0.00 0.00 0.00 79 1019.3
20260830223233 21 324 3.2 4.8 0.00 0.00 0.00 77 1019.3
20260830222732 22 328 1.6 3.2 0.00 0.00 0.00 77 1019.3
20260830222231 22 327 3.2 3.2 0.00 0.00 0.00 77 1019.3
20260830221730 22 329 1.6 3.2 0.00 0.00 0.00 77 1019.3
20260830221232 22 345 3.2 4.8 0.00 0.00 0.00 78 1019.4
20260830220731 22 332 6.4 12.9 0.00 0.00 0.00 78 1019.3
20260830220231 22 322 4.8 8.0 0.00 0.00 0.00 77 1019.3
20260830215729 22 322 3.2 3.2 0.00 0.00 0.00 77 1019.3
20260830215230 22 329 3.2 4.8 0.00 0.00 0.00 76 1019.3
20260830214732 23 343 1.6 1.6 0.00 0.00 0.00 75 1019.3
20260830214229 23 335 4.8 4.8 0.00 0.00 0.00 75 1019.3
20260830213728 23 345 3.2 4.8 0.00 0.00 0.00 75 1019.3
20260830213228 23 0.0 0.0 0.00 0.00 0.00 77 1019.6
20260830212728 22 324 0.0 1.6 0.00 0.00 0.00 77 1019.3
20260830212228 22 333 1.6 3.2 0.00 0.00 0.00 77 1019.6
20260830211727 22 332 0.0 1.6 0.00 0.00 0.00 77 1019.4
20260830211226 22 332 1.6 1.6 0.00 0.00 0.00 77 1019.6
20260830210727 23 314 3.2 4.8 0.00 0.00 0.00 76 1019.3
20260830210227 23 324 3.2 4.8 0.00 0.00 0.00 74 1019.3
20260830205726 23 318 1.6 3.2 0.00 0.00 0.00 73 1019.6
20260830205225 24 0.0 0.0 0.00 0.00 0.00 74 1019.6
20260830204724 24 302 3.2 9.7 0.00 0.00 0.00 72 1019.6
20260830204225 23 348 1.6 3.2 0.00 0.00 0.00 76 1019.6
20260830203724 23 8 1.6 3.2 0.00 0.00 0.00 79 1019.6
20260830203224 23 325 1.6 1.6 0.00 0.00 0.00 76 1019.6
20260830202825 23 0.0 0.0 0.00 0.00 0.00 75 1019.6
20260830202224 23 314 1.6 3.2 0.00 0.00 0.00 73 1019.6
20260830201723 23 329 1.6 1.6 0.00 0.00 0.00 77 1019.6
20260830201222 23 337 1.6 3.2 0.00 0.00 0.00 72 1019.6
20260830200721 23 344 3.2 8.0 0.00 0.00 0.00 71 1019.6
20260830200222 23 290 4.8 8.0 0.00 0.00 0.00 71 1019.6
20260830195722 25 345 1.6 1.6 0.00 0.00 0.00 71 1019.6
20260830195221 24 325 0.0 1.6 0.00 0.00 0.00 74 1019.6
20260830194722 23 271 4.8 8.0 0.00 0.00 0.00 77 1020.0
20260830194221 23 345 1.6 3.2 0.00 0.00 0.00 77 1020.0
20260830193721 23 296 1.6 3.2 0.00 0.00 0.00 76 1020.0
20260830193225 23 320 4.8 4.8 0.00 0.00 0.00 77 1020.0
20260830192822 23 301 3.2 4.8 0.00 0.00 0.00 76 1020.1
20260830192220 23 336 1.6 1.6 0.00 0.00 0.00 73 1020.0
20260830191719 23 305 1.6 3.2 0.00 0.00 0.00 73 1020.3
20260830191219 23 117 8.0 12.9 0.00 0.00 0.00 74 1020.3
20260830190720 23 138 8.0 11.3 0.00 0.00 0.00 74 1020.1
20260830190219 23 343 3.2 3.2 0.00 0.00 0.00 76 1020.3
20260830185718 23 188 3.2 8.0 0.00 0.00 0.00 78 1020.3
20260830185217 22 187 4.8 8.0 0.00 0.00 0.00 80 1020.3
20260830184718 22 286 6.4 8.0 0.00 0.00 0.00 81 1020.7
20260830184321 22 18 4.8 4.8 0.00 0.00 0.00 79 1020.7
20260830183216 22 265 4.8 8.0 0.00 0.00 0.00 83 1020.7
20260830182717 22 13 4.8 4.8 0.00 0.00 0.00 83 1020.7
20260830182347 21 207 4.8 8.0 0.00 0.00 0.00 83 1021.0
20260830181745 21 319 3.2 4.8 0.00 0.00 0.00 83 1021.0
20260830181246 21 290 3.2 4.8 0.00 0.00 0.00 84 1021.0
20260830180744 21 352 3.2 4.8 0.00 0.00 0.00 85 1021.0
20260830180245 21 352 3.2 3.2 0.00 0.00 0.00 85 1021.0
20260830175747 21 332 1.6 3.2 0.00 0.00 0.00 83 1021.0
20260830175246 21 330 1.6 1.6 0.00 0.00 0.00 84 1021.0
20260830174742 21 351 3.2 3.2 0.00 0.00 0.00 83 1021.0
20260830174244 21 92 4.8 4.8 0.00 0.00 0.00 82 1021.4
20260830173743 22 339 3.2 3.2 0.00 0.00 0.00 82 1021.4
20260830173242 22 99 4.8 4.8 0.00 0.00 0.00 81 1021.4
20260830172741 22 324 3.2 3.2 0.00 0.00 0.00 80 1021.4
20260830172243 22 312 1.6 3.2 0.00 0.00 0.00 80 1021.4
20260830171742 21 346 1.6 1.6 0.00 0.00 0.00 80 1021.4
20260830171243 21 348 3.2 4.8 0.00 0.00 0.00 81 1021.4
20260830170740 21 6 3.2 3.2 0.00 0.00 0.00 81 1021.4
20260830170241 21 19 3.2 4.8 0.00 0.00 0.00 82 1021.5
20260830165740 21 345 1.6 3.2 0.00 0.00 0.00 79 1021.7
20260830165240 21 357 3.2 3.2 0.00 0.00 0.00 85 1021.7
20260830164742 21 302 3.2 4.8 0.00 0.00 0.00 80 1021.9
20260830164240 21 325 1.6 1.6 0.00 0.00 0.00 80 1022.1
20260830163739 21 339 1.6 3.2 0.00 0.00 0.00 81 1021.7
20260830163239 22 110 4.8 4.8 0.00 0.00 0.00 78 1022.1
20260830162739 22 330 1.6 3.2 0.00 0.00 0.00 73 1021.9
20260830162238 22 284 3.2 8.0 0.00 0.00 0.00 70 1022.1
20260830161738 22 327 1.6 1.6 0.00 0.00 0.00 71 1021.7
20260830161237 21 335 0.0 1.6 0.00 0.00 0.00 78 1022.1
20260830160736 21 332 0.0 1.6 0.00 0.00 0.00 75 1022.1
20260830160237 21 325 3.2 8.0 0.00 0.00 0.00 71 1022.4
20260830155737 21 335 1.6 3.2 0.00 0.00 0.00 73 1022.4
20260830155236 20 330 0.0 1.6 0.00 0.00 0.00 74 1022.4
20260830154236 20 337 1.6 1.6 0.00 0.00 0.00 84 1022.4
20260830153735 20 357 1.6 3.2 0.00 0.00 0.00 87 1022.6
20260830153234 19 338 1.6 1.6 0.00 0.00 0.00 88 1022.8
20260830152734 19 325 1.6 1.6 0.00 0.00 0.00 88 1022.8
20260830152235 19 331 1.6 1.6 0.00 0.00 0.00 89 1022.8
20260830151734 18 307 1.6 3.2 0.00 0.00 0.00 87 1022.8
20260830151233 18 315 1.6 3.2 0.00 0.00 0.00 89 1022.8
20260830150734 18 308 1.6 3.2 0.00 0.00 0.00 90 1022.9
20260830150234 18 313 1.6 1.6 0.00 0.00 0.00 91 1022.8
20260830145733 18 326 3.2 3.2 0.00 0.00 0.00 91 1022.4
20260830145232 18 301 3.2 4.8 0.00 0.00 0.00 91 1022.6
20260830144731 18 295 4.8 4.8 0.00 0.00 0.00 89 1022.8
20260830144232 18 339 3.2 3.2 0.00 0.00 0.00 88 1022.8
20260830143731 18 4 3.2 3.2 0.00 0.00 0.00 89 1022.8
20260830143230 18 334 1.6 1.6 0.00 0.00 0.00 88 1022.8
20260830142730 18 349 3.2 4.8 0.00 0.00 0.00 87 1023.1
20260830142329 18 350 1.6 1.6 0.00 0.00 0.00 88 1022.8
20260830141730 18 293 4.8 8.0 0.00 0.00 0.00 87 1022.8
20260830131225 16 24 4.8 4.8 0.00 0.00 0.00 89 1023.1
20260830130727 16 228 6.4 8.0 0.00 0.00 0.00 89 1023.1
20260830130327 16 11 3.2 4.8 0.00 0.00 0.00 89 1023.1
20260830125725 16 325 3.2 3.2 0.00 0.00 0.00 90 1022.8
20260830125325 16 119 6.4 9.7 0.00 0.00 0.00 89 1023.1
20260830124724 16 127 4.8 8.0 0.00 0.00 0.00 90 1023.1
20260830124223 16 335 3.2 4.8 0.00 0.00 0.00 90 1023.1
20260830123725 16 228 4.8 8.0 0.00 0.00 0.00 90 1023.1
20260830123223 16 356 3.2 4.8 0.00 0.00 0.00 90 1023.1
20260830122722 16 5 4.8 4.8 0.00 0.00 0.00 89 1023.1
20260830122221 16 147 8.0 9.7 0.00 0.00 0.00 88 1023.1
20260830121726 17 191 6.4 8.0 0.00 0.00 0.00 87 1023.1
20260830121222 17 162 9.7 11.3 0.00 0.00 0.00 85 1023.1
20260830120823 17 120 6.4 9.7 0.00 0.00 0.00 85 1023.1
20260830120221 16 79 4.8 4.8 0.00 0.00 0.00 87 1023.1
20260830115721 16 344 3.2 3.2 0.00 0.00 0.00 89 1023.1
20260830115221 16 137 6.4 9.7 0.00 0.00 0.00 89 1023.1
20260830114720 16 21 3.2 8.0 0.00 0.00 0.00 90 1023.1
20260830114219 16 324 3.2 3.2 0.00 0.00 0.00 88 1023.1
20260830113722 15 346 3.2 4.8 0.00 0.00 0.00 89 1023.1
20260830113221 15 156 3.2 8.0 0.00 0.00 0.00 90 1023.5
20260830112719 15 275 4.8 4.8 0.00 0.00 0.00 88 1023.3
20260830112320 15 324 3.2 3.2 0.00 0.00 0.00 89 1023.5
20260830111218 14 293 3.2 3.2 0.00 0.00 0.00 94 1023.3
20260830110717 14 0.0 0.0 0.00 0.00 0.00 94 1023.3
20260830110216 14 336 0.0 1.6 0.00 0.00 0.00 94 1023.5
20260830105715 13 0.0 0.0 0.00 0.00 0.00 94 1023.3
20260830105217 13 334 1.6 1.6 0.00 0.00 0.00 95 1023.3
20260830104746 13 355 1.6 3.2 0.00 0.00 0.00 95 1023.5
20260830104245 13 336 1.6 4.8 0.00 0.00 0.00 95 1023.5
20260830103746 13 0.0 0.0 0.00 0.00 0.00 95 1023.3
20260830103245 13 0.0 0.0 0.00 0.00 0.00 95 1023.1
20260830102744 13 0.0 0.0 0.00 0.00 0.00 95 1023.1
20260830102244 12 341 0.0 1.6 0.00 0.00 0.00 98 1023.1
20260830101745 12 0.0 0.0 0.00 0.00 0.00 97 1023.1
20260830101244 12 0.0 0.0 0.00 0.00 0.00 97 1023.1
20260830100743 12 0.0 0.0 0.00 0.00 0.00 97 1023.1
20260830095742 12 334 1.6 1.6 0.00 0.00 0.00 97 1023.1
20260830095244 12 0.0 0.0 0.00 0.00 0.00 97 1023.1
20260830094742 12 0.0 0.0 0.00 0.00 0.00 97 1023.3
20260830094242 12 322 1.6 1.6 0.00 0.00 0.00 97 1023.5
20260830093741 12 0.0 0.0 0.00 0.00 0.00 97 1023.1
20260830093242 12 0.0 0.0 0.00 0.00 0.00 97 1023.3
20260830072233 12 0.0 0.0 0.00 0.00 0.00 95 1023.5
20260830071732 12 0.0 0.0 0.00 0.00 0.00 95 1023.5
20260830071231 12 0.0 0.0 0.00 0.00 0.00 94 1023.5
20260830070732 12 0.0 0.0 0.00 0.00 0.00 94 1023.5
20260830070231 12 0.0 0.0 0.00 0.00 0.00 94 1023.5
20260830065731 13 324 0.0 1.6 0.00 0.00 0.00 93 1023.3
20260830065230 13 0.0 0.0 0.00 0.00 0.00 93 1023.5
20260830064731 13 0.0 0.0 0.00 0.00 0.00 93 1023.5
20260830064230 13 0.0 0.0 0.00 0.00 0.00 93 1023.5
20260830063729 13 0.0 0.0 0.00 0.00 0.00 93 1023.8
20260830063229 13 0.0 0.0 0.00 0.00 0.00 92 1023.5
20260830062730 13 0.0 0.0 0.00 0.00 0.00 92 1023.3
20260830062229 13 0.0 0.0 0.00 0.00 0.00 91 1023.5
20260830061728 13 0.0 0.0 0.00 0.00 0.00 91 1023.5
20260830060827 13 322 1.6 1.6 0.00 0.00 0.00 90 1023.5
20260830060227 13 324 1.6 1.6 0.00 0.00 0.00 91 1023.8
20260830055828 13 327 1.6 1.6 0.00 0.00 0.00 91 1023.8
20260830055226 13 327 0.0 1.6 0.00 0.00 0.00 90 1023.6
20260830054827 13 0.0 0.0 0.00 0.00 0.00 90 1023.8
20260830054227 13 327 0.0 1.6 0.00 0.00 0.00 91 1023.8
20260830053826 13 332 1.6 1.6 0.00 0.00 0.00 91 1024.0
20260830053225 13 324 1.6 1.6 0.00 0.00 0.00 91 1023.8
20260830052826 13 324 1.6 1.6 0.00 0.00 0.00 90 1023.8
20260830051223 13 325 3.2 3.2 0.00 0.00 0.00 89 1023.8
20260830050724 13 327 1.6 1.6 0.00 0.00 0.00 90 1024.2
20260830050223 13 324 1.6 1.6 0.00 0.00 0.00 90 1024.0
20260830045723 13 322 1.6 1.6 0.00 0.00 0.00 89 1023.8
20260830045227 13 319 3.2 3.2 0.00 0.00 0.00 90 1024.2
20260830044823 13 326 1.6 3.2 0.00 0.00 0.00 90 1024.2